Location: Caltech
(34.1382°N, 118.1253°W)
Time: 06:35:44
(UTC-07:00)

SEDSat Delta rocket - Visible Passes

Search period start: 31 October 2014 00:00
Search period end: 09 November 2014 23:00
Orbit: 534 x 1010 km, 31.4° (Epoch: 30 October)

Date Brightness Start Highest point End Pass type
(mag) Time Alt. Az. Time Alt. Az. Time Alt. Az.
31 Oct 4.1 19:06:18 10° WSW 19:13:00 67° S 19:16:55 24° E visible
31 Oct 5.1 20:53:12 10° W 20:57:08 37° WSW 20:57:08 37° WSW visible
01 Nov 4.3 18:26:52 10° WSW 18:33:37 65° S 18:39:57 10° E visible
01 Nov 3.9 20:13:41 10° W 20:20:12 67° SSW 20:20:12 67° SSW visible
02 Nov 4.0 18:34:11 10° W 18:40:55 69° S 18:43:17 40° ESE visible
02 Nov 6.0 20:21:16 10° W 20:23:30 21° W 20:23:30 21° W visible
03 Nov 4.2 17:54:42 10° W 18:01:31 71° S 18:06:24 18° ESE visible
03 Nov 4.9 19:41:42 10° W 19:46:37 41° SW 19:46:37 41° SW visible
04 Nov 4.3 17:15:16 10° W 17:22:05 72° S 17:28:40 10° E visible
04 Nov 4.3 19:02:10 10° W 19:08:43 52° SSW 19:09:47 47° SSE visible
04 Nov 6.7 20:49:56 10° W 20:50:01 10° WSW 20:50:01 10° WSW visible
05 Nov 4.4 18:22:40 10° W 18:29:21 57° SSW 18:33:01 26° SE visible
05 Nov 5.9 20:10:10 10° W 20:13:15 22° WSW 20:13:15 22° WSW visible
06 Nov 4.5 17:43:13 10° W 17:49:56 60° SSW 17:56:20 10° ESE visible
06 Nov 5.2 19:30:30 10° W 19:36:15 30° SSW 19:36:35 30° SSW visible
07 Nov 5.2 18:50:54 10° W 18:56:56 34° SSW 19:00:01 23° SSE visible
08 Nov 5.2 18:11:22 10° W 18:17:35 38° SSW 18:23:34 10° SE visible
08 Nov 6.3 20:00:27 10° WSW 20:03:29 13° SW 20:03:50 13° SSW visible
09 Nov 5.2 17:31:54 10° W 17:38:12 42° SSW 17:44:29 10° SE visible
09 Nov 6.2 19:20:17 10° WSW 19:24:14 16° SSW 19:27:33 11° S visible
